Jasper, AL

2:48 AM CST on December 10, 2019 (GMT -0600)
Walker County-Bevill

Weather History for KJFX - July, 2019

Change the Weather History Date:

Wednesday, July 17, 2019

  Actual Average Record
Temperature  
Mean Temperature 82 °F -  
Max Temperature 95 °F 90 °F 108 °F (1980)
Min Temperature 69 °F 67 °F 57 °F (2014)
Cooling Degree Days 17    
Growing Degree Days 32 (Base 50)    
Moisture  
Dew Point 76 °F    
Average Humidity 90    
Maximum Humidity 100    
Minimum Humidity 56    
Precipitation  
Precipitation 0.00 in - - ()
Sea Level Pressure  
Sea Level Pressure 30.08 in    
Wind  
Wind Speed - (North)    
Max Wind Speed -    
Max Gust Speed -    
Visibility 8 miles    
Events Rain , Thunderstorm    
Averages and records for this station are not official NWS values.
T = Trace of Precipitation, MM = Missing Value Source: NWS Daily Summary

Daily Weather History Graph

Daily Weather History Graph

Search for Another Location

Airport or City:

Astronomy

Jul. 17, 2019 Rise Set
Actual Time 5:50 AM CDT 8:00 PM CDT
Civil Twilight 5:22 AM CDT 8:28 PM CDT
Nautical Twilight 4:47 AM CDT 9:02 PM CDT
Astronomical Twilight 4:10 AM CDT 9:40 PM CDT
Moon 8:49 PM CDT (7/17) 6:22 AM CDT (7/17)
Length of Visible Light 15h 06m
Length of Day
14h 09m
Full, 99% of the Moon is Illuminated
Jul 17
Full
Jul 24
Last Quarter
Jul 31
New
Aug 7
First Quarter
Aug 15
Full

Hourly Weather History & Observations

Time (CDT) Temp. Heat Index Dew Point Humidity Pressure Visibility Wind Dir Wind Speed Gust Speed Precip Events Conditions
12:15 AM 71.6 °F - 71.6 °F 100% 30.08 in 8.0 mi North - - N/A   Partly Cloudy
12:35 AM 71.6 °F - 71.6 °F 100% 30.08 in 9.0 mi North - - N/A   Partly Cloudy
1:15 AM 71.6 °F - 71.6 °F 100% 30.08 in 8.0 mi North - - N/A   Partly Cloudy
1:35 AM 73.4 °F - 73.4 °F 100% 30.08 in 9.0 mi North - - N/A Rain Light Rain
1:55 AM 71.6 °F - 71.6 °F 100% 30.07 in 7.0 mi North - - N/A   Scattered Clouds
2:15 AM 71.6 °F - 71.6 °F 100% 30.06 in 9.0 mi North - - N/A   Partly Cloudy
2:35 AM 71.6 °F - 71.6 °F 100% 30.06 in 7.0 mi North - - N/A   Clear
2:55 AM 71.6 °F - 71.6 °F 100% 30.06 in 4.0 mi North - - N/A   Clear
3:15 AM 71.6 °F - 71.6 °F 100% 30.06 in 2.0 mi North - - N/A   Clear
3:35 AM 71.6 °F - 71.6 °F 100% 30.06 in 6.0 mi North - - N/A   Partly Cloudy
3:55 AM 71.6 °F - 71.6 °F 100% 30.06 in 9.0 mi North - - N/A   Clear
4:15 AM 71.6 °F - 71.6 °F 100% 30.06 in 3.0 mi North - - N/A   Clear
4:35 AM 71.6 °F - 71.6 °F 100% 30.06 in 8.0 mi North - - N/A   Clear
4:55 AM 71.6 °F - 71.6 °F 100% 30.06 in 10.0 mi North - - N/A   Partly Cloudy
5:15 AM 71.6 °F - 71.6 °F 100% 30.07 in 10.0 mi North - - N/A   Clear
5:35 AM 69.8 °F - 69.8 °F 100% 30.07 in 3.0 mi North - - N/A Thunderstorm Clear
5:55 AM 71.6 °F - 71.6 °F 100% 30.08 in 6.0 mi North - - N/A   Scattered Clouds
6:15 AM 71.6 °F - 71.6 °F 100% 30.08 in 7.0 mi North - - N/A   Scattered Clouds
6:35 AM 71.6 °F - 71.6 °F 100% 30.08 in 5.0 mi North - - N/A   Clear
6:55 AM 73.4 °F - 73.4 °F 100% 30.09 in 9.0 mi North - - N/A   Partly Cloudy
7:15 AM 75.2 °F - 75.2 °F 100% 30.11 in 9.0 mi North - - N/A   Scattered Clouds
7:35 AM 77.0 °F - 77.0 °F 100% 30.11 in 8.0 mi North - - N/A   Overcast
7:55 AM 77.0 °F - 77.0 °F 100% 30.12 in 8.0 mi North - - N/A   Overcast
8:15 AM 78.8 °F - 78.8 °F 100% 30.13 in 9.0 mi North - - N/A Thunderstorm Overcast
8:35 AM 78.8 °F - 78.8 °F 100% 30.14 in 9.0 mi North - - N/A   Overcast
8:55 AM 78.8 °F - 78.8 °F 100% 30.13 in 9.0 mi North - - N/A Thunderstorm Mostly Cloudy
9:15 AM 78.8 °F - 78.8 °F 100% 30.13 in 10.0 mi North - - N/A Thunderstorm Mostly Cloudy
9:35 AM 80.6 °F 88.1 °F 78.8 °F 94% 30.12 in 10.0 mi North - - N/A   Partly Cloudy
9:55 AM 80.6 °F 88.1 °F 78.8 °F 94% 30.12 in 9.0 mi North - - N/A Thunderstorm Clear
10:15 AM - - - N/A% 30.13 in 5.0 mi North - - N/A Rain , Thunderstorm Rain
10:35 AM 78.8 °F - 78.8 °F 100% 30.13 in 8.0 mi North - - N/A Thunderstorm Thunderstorm
10:55 AM 80.6 °F 88.1 °F 78.8 °F 94% 30.13 in 10.0 mi North - - N/A Thunderstorm Mostly Cloudy
11:15 AM 80.6 °F 88.1 °F 78.8 °F 94% 30.13 in 10.0 mi North - - N/A Thunderstorm Overcast
11:35 AM 82.4 °F 92.4 °F 78.8 °F 89% 30.13 in 10.0 mi North - - N/A Thunderstorm Overcast
11:55 AM 82.4 °F 92.4 °F 78.8 °F 89% 30.13 in 10.0 mi North - - N/A   Overcast
12:15 PM 84.2 °F 96.1 °F 78.8 °F 84% 30.13 in 10.0 mi North - - N/A   Overcast
12:35 PM 84.2 °F 96.1 °F 78.8 °F 84% 30.13 in 10.0 mi North - - N/A   Mostly Cloudy
12:55 PM 86.0 °F 99.3 °F 78.8 °F 79% 30.12 in 10.0 mi North - - N/A Thunderstorm Mostly Cloudy
1:15 PM 87.8 °F 99.7 °F 77.0 °F 70% 30.12 in 10.0 mi North - - N/A   Scattered Clouds
1:35 PM 87.8 °F 102.5 °F 78.8 °F 75% 30.12 in 10.0 mi North - - N/A   Mostly Cloudy
1:55 PM 89.6 °F 104.7 °F 78.8 °F 70% 30.11 in 10.0 mi North - - N/A   Partly Cloudy
2:15 PM 89.6 °F 104.7 °F 78.8 °F 70% 30.10 in 10.0 mi North - - N/A   Partly Cloudy
2:35 PM 91.4 °F 107.2 °F 78.8 °F 66% 30.09 in 10.0 mi North - - N/A   Scattered Clouds
2:55 PM 91.4 °F 105.1 °F 77.0 °F 63% 30.08 in 10.0 mi North - - N/A   Partly Cloudy
3:15 PM 91.4 °F 107.2 °F 78.8 °F 66% 30.08 in 10.0 mi North - - N/A   Scattered Clouds
3:35 PM 93.2 °F 110.2 °F 78.8 °F 63% 30.07 in 10.0 mi North - - N/A   Partly Cloudy
3:55 PM 95.0 °F 109.7 °F 77.0 °F 56% 30.06 in 10.0 mi North - - N/A   Clear
4:15 PM 93.2 °F 110.2 °F 78.8 °F 63% 30.06 in 10.0 mi North - - N/A   Scattered Clouds
4:35 PM 93.2 °F 110.2 °F 78.8 °F 63% 30.05 in 10.0 mi North - - N/A   Mostly Cloudy
4:55 PM 91.4 °F 107.2 °F 78.8 °F 66% 30.05 in 10.0 mi North - - N/A   Mostly Cloudy
5:15 PM 89.6 °F 104.7 °F 78.8 °F 70% 30.04 in 10.0 mi North - - N/A   Scattered Clouds
5:35 PM 87.8 °F 102.5 °F 78.8 °F 75% 30.03 in 10.0 mi North - - N/A   Scattered Clouds
5:55 PM 89.6 °F 104.7 °F 78.8 °F 70% 30.02 in 10.0 mi North - - N/A   Partly Cloudy
6:15 PM 89.6 °F 104.7 °F 78.8 °F 70% 30.03 in 10.0 mi North - - N/A   Clear
6:35 PM 87.8 °F 102.5 °F 78.8 °F 75% 30.03 in 10.0 mi North - - N/A   Clear
6:55 PM 87.8 °F 102.5 °F 78.8 °F 75% 30.03 in 10.0 mi North - - N/A   Clear
7:15 PM 87.8 °F 102.5 °F 78.8 °F 75% 30.03 in 10.0 mi North - - N/A   Clear
7:35 PM 86.0 °F 99.3 °F 78.8 °F 79% 30.04 in 10.0 mi North - - N/A   Clear
7:55 PM 84.2 °F 98.3 °F 80.6 °F 89% 30.04 in 10.0 mi North - - N/A   Partly Cloudy
8:15 PM 82.4 °F 96.1 °F 82.4 °F 100% 30.04 in 9.0 mi North - - N/A   Clear
8:35 PM 80.6 °F 89.3 °F 80.6 °F 100% 30.05 in 10.0 mi North - - N/A   Clear
8:55 PM 78.8 °F - 78.8 °F 100% 30.05 in 7.0 mi North - - N/A   Clear
9:15 PM 78.8 °F - 78.8 °F 100% 30.06 in 8.0 mi North - - N/A   Clear
9:35 PM 78.8 °F - 78.8 °F 100% 30.07 in 7.0 mi North - - N/A   Clear
9:55 PM 77.0 °F - 77.0 °F 100% 30.08 in 6.0 mi North - - N/A   Clear
10:15 PM 77.0 °F - 77.0 °F 100% 30.08 in 4.0 mi North - - N/A   Clear
10:35 PM 77.0 °F - 77.0 °F 100% 30.08 in 6.0 mi North - - N/A   Clear
10:55 PM 77.0 °F - 77.0 °F 100% 30.09 in 5.0 mi North - - N/A   Clear
11:15 PM 75.2 °F - 75.2 °F 100% 30.08 in 7.0 mi North - - N/A   Clear
11:35 PM 75.2 °F - 75.2 °F 100% 30.08 in 0.5 mi North - - N/A   Mist
11:55 PM 75.2 °F - 75.2 °F 100% 30.08 in 7.0 mi North - - N/A   Clear